Tracking 19817 objects as of 19-Aug-2019
HD Live streaming from Space Station
objects crossing your sky now

OBJECT W

Track OBJECT W now!
10-day predictions


NORAD ID: 44406
Int'l Code: 2019-038W
Perigee: 519.4 km
Apogee: 556.1 km
Inclination: 97.5 °
Period: 95.2 minutes
Semi major axis: 6908 km
RCS: Unknown
Launch date: July 5, 2019
Source: United States (US)
Launch site: VOSTOCHNY COSMODROME (VOSTO)
aabbcc
Your satellite tracking list
Your tracking list is empty




NASA's NSSDC Master Catalog

Two Line Element Set (TLE):
1 44406U 19038W   19228.85886030 +.00000300 +00000-0 +21215-4 0  9997
2 44406 097.4934 189.9903 0026607 097.6557 262.7697 15.11829749006399
Source of the keplerian elements: AFSPC